Anzali, Iran

11:38 AM IRDT on July 28, 2015 (GMT +0430)
Rasht | | Change Station
CLOSE
Current Station
Airport
Location: Rasht,
Elevation: -30 ft
Nearby Weather Stations

Elev -30 ft 37.33 °N, 49.61 °E | Updated 8 minutes ago

Clear
Clear
88 °F
Feels Like 94 °F
N
0
Wind Variable Wind from North

Today
High -- | Low -- °F
--% Chance of Precip.
Yesterday
High -- | Low -- °F
Precip. -- in
6:12 AM 8:24 PM
Waxing Gibbous, 87% visible
Pressure 29.68 in
Visibility -9999.0 miles
Clouds
Heat Index 94 °F
Dew Point 72 °F
Humidity 58%
Rainfall 0.00 in
Snow Depth Not available.
UV Not available.
Pollen Not available.
Air Quality Not available.
Flu Activity Not available.
METAR OIGG 280700Z 00000KT CAVOK 31/22 Q1005

More Conditions Fewer Conditions

Pressure 29.68 in
Visibility -9999.0 miles
Clouds
Heat Index 94 °F
Dew Point 72 °F
Humidity 58%
Rainfall 0.00 in
Snow Depth Not available.
UV Not available.
Pollen Not available.
Air Quality Not available.
Flu Activity Not available.
METAR OIGG 280700Z 00000KT CAVOK 31/22 Q1005

More Conditions Fewer Conditions

10-Day Weather Forecast

×

Almanac

Astronomy

Jul. 28, 2015 Rise Set
Actual Time
Civil Twilight
Nautical Twilight
Astronomical Twilight
Moon
Length of Visible Light
Length of Day
Tomorrow will be .
, % of the Moon is Illuminated

Today's Extremes

Country Highs Country Lows

Community

WunderPhotos

Upload Photos

1,841,796 photos uploaded!

WunderBlogs® & News

Nearby

Air Quality

  Air Quality AQ Index Pollutant
Not available.

Snow Depth

Station Depth Elevation

Earthquake Activity

City Distance Mag. Time & Date
Minimum magnitude displayed is 2.5.

Coastal Water Temperatures

Place Temperature

Stations

Nearby Weather Stations

Station Location Temp. Windchill Dew Point Humidity Wind Precip. Elev Updated Type